"Time","Temp","Dewpoint","Humidity","Pressure","Direction","Speed","Gust","Precip","PrecipRate"
"00:04:59","33.1","31.1","92.2","29.95","296","0","0","0.00","0.00"
"00:09:57","32.9","30.8","92","29.95","296","0","0","0.00","0.00"
"00:14:57","32.7","30.6","92","29.95","296","0.3","1.2","0.00","0.00"
"00:19:56","32.6","30.5","92.2","29.95","296","0.5","2.4","0.00","0.00"
"00:24:57","32.4","30.5","92.7","29.95","296","0","1.2","0.00","0.00"
"00:29:57","32.3","30.5","93","29.95","296","0","0","0.00","0.00"
"00:34:57","32.3","30.5","93","29.94","296","0","0","0.00","0.00"
"00:39:57","32.3","30.6","93.2","29.94","296","0","0","0.00","0.00"
"00:44:57","32.2","30.4","93","29.94","296","0","0","0.00","0.00"
"00:49:57","32.1","30.4","93.2","29.94","296","0","1.2","0.00","0.00"
"00:54:58","32.1","30.6","93.9","29.94","296","0.2","1.2","0.00","0.00"
"00:59:58","32.1","30.6","94","29.94","296","0","0","0.00","0.00"
"01:04:59","31.9","30.4","94","29.93","296","0","0","0.00","0.00"
"01:09:58","31.9","30.4","94","29.93","296","0.1","1.2","0.00","0.00"
"01:14:58","31.9","30.4","94","29.94","318","1","4.8","0.00","0.00"
"01:19:58","32.1","30.2","92.6","29.94","316","0.4","4.8","0.00","0.00"
"01:24:57","32.5","29.5","88.7","29.94","315","0.8","4.6","0.00","0.00"
"01:29:58","33.1","28.9","84.4","29.94","311","0.7","3.6","0.00","0.00"
"01:34:57","33.7","27.7","78.4","29.93","314","0.2","3.5","0.00","0.00"
"01:39:57","34.3","27.7","76.7","29.93","314","0","1.2","0.00","0.00"
"01:44:57","34.4","27.8","76.6","29.93","314","0","1.2","0.00","0.00"
"01:49:56","34.5","27.1","74.2","29.93","314","0.2","1.2","0.00","0.00"
"01:54:56","34.8","27.1","73.2","29.93","314","0.5","2.4","0.00","0.00"
"01:59:59","34.9","26.8","71.8","29.93","314","0","1.2","0.00","0.00"
"02:04:56","35","26.9","72","29.93","314","0","1.2","0.00","0.00"
"02:09:56","34.9","26.8","72","29.93","314","0.1","1.2","0.00","0.00"
"02:14:59","34.8","26.7","72","29.93","314","0.1","1.2","0.00","0.00"
"02:19:59","34.7","26.5","71.7","29.93","261","0.2","2.4","0.00","0.00"
"02:24:59","34.6","26","70.5","29.93","223","0.3","1.2","0.00","0.00"
"02:29:59","34.7","25.6","68.9","29.93","223","0.4","2.4","0.00","0.00"
"02:34:58","35.1","25.1","66.8","29.93","218","1.8","4.8","0.00","0.00"
"02:39:57","35.4","25.1","65.7","29.93","203","3.2","7.2","0.00","0.00"
"02:44:57","35.8","25.1","65","29.93","200","1.6","5.8","0.00","0.00"
"02:49:59","35.8","25","64.6","29.93","201","0.4","3.6","0.00","0.00"
"02:54:59","35.7","24.7","64","29.93","201","1.5","3.5","0.00","0.00"
"02:59:58","35.6","24.9","64.6","29.93","238","0.7","4.8","0.00","0.00"
"03:04:56","35.6","24.6","64.1","29.93","286","1.9","7.2","0.00","0.00"
"03:09:58","36.1","24.6","62.8","29.93","310","4.4","9.6","0.00","0.00"
"03:14:57","36.8","24.8","61.7","29.93","310","4.9","21.9","0.00","0.00"
"03:19:56","37.3","24.9","60.4","29.92","304","2.9","17.3","0.00","0.00"
"03:24:59","37.6","25","60","29.92","326","2.9","7.2","0.00","0.00"
"03:29:58","37.5","24.9","59.9","29.92","311","3.3","8.4","0.00","0.00"
"03:34:58","37.6","24.9","59.9","29.92","326","2.2","5.8","0.00","0.00"
"03:39:57","37.5","25","60.3","29.92","276","3.5","7.2","0.00","0.00"
"03:44:57","37.5","25.1","60.6","29.92","282","1.9","4.8","0.00","0.00"
"03:49:59","37.5","25.1","60.5","29.92","305","2","7.2","0.00","0.00"
"03:54:58","37.5","25.1","60.5","29.92","258","4.7","12","0.00","0.00"
"03:59:58","37.7","25.1","60.2","29.92","325","6.1","24.2","0.00","0.00"
"04:04:59","38","25.2","59.9","29.92","321","7.4","20.7","0.00","0.00"
"04:09:58","38.1","25.2","59.4","29.92","309","7.1","21.9","0.00","0.00"
"04:14:56","38.2","25.2","59.2","29.92","308","9.5","23","0.00","0.00"
"04:19:57","38.2","25.4","59.7","29.92","313","8.4","21.9","0.00","0.00"
"04:24:56","38.1","25.4","60","29.92","304","7.9","20.7","0.00","0.00"
"04:29:59","38.1","25.6","60.5","29.93","298","7.1","17.3","0.00","0.00"
"04:34:58","38","25.5","60.5","29.93","329","8","21.9","0.00","0.00"
"04:39:57","37.9","25.3","60.3","29.93","304","7.9","17.3","0.00","0.00"
"04:44:56","37.8","25.2","60.2","29.93","315","7.2","15.6","0.00","0.00"
"04:49:59","37.8","25.1","60","29.93","314","8.7","32.4","0.00","0.00"
"04:54:58","37.8","25","59.7","29.93","285","5.9","17.3","0.00","0.00"
"04:59:56","37.7","25.1","60","29.93","298","6.2","13.2","0.00","0.00"
"05:04:56","37.6","24.8","59.7","29.93","290","6.7","25.3","0.00","0.00"
"05:09:59","37.5","24.7","59.3","29.93","303","7.5","26.4","0.00","0.00"
"05:14:58","37.6","24.3","58.5","29.95","320","9.3","26.5","0.00","0.00"
"05:19:57","37.6","24.2","58.2","29.95","314","10.2","19.6","0.00","0.00"
"05:24:56","37.4","24","58","29.95","312","6.7","16.1","0.00","0.00"
"05:29:59","37.3","24","58.4","29.95","311","5.3","16.1","0.00","0.00"
"05:34:58","37.1","23.8","58.1","29.95","293","6.8","13.2","0.00","0.00"
"05:39:57","37.1","23.5","57.5","29.95","323","7.5","25.3","0.00","0.00"
"05:44:56","37.1","23.1","56.6","29.95","318","7.8","21.9","0.00","0.00"
"05:49:56","37","23","56.5","29.94","298","6.9","21.9","0.00","0.00"
"05:54:59","36.9","22.5","55.6","29.94","299","7.3","18.4","0.00","0.00"
"05:59:58","36.8","22.2","55.2","29.95","290","4.9","12","0.00","0.00"
"06:04:57","36.8","22.1","55","29.95","311","5.9","16.1","0.00","0.00"
"06:09:57","36.8","22.1","54.8","29.95","292","8","17.3","0.00","0.00"
"06:14:56","37","21.7","53.7","29.96","319","8","17.3","0.00","0.00"
"06:19:59","37","21.9","54","29.96","312","9.6","24.2","0.00","0.00"
"06:24:58","37","22.1","54.3","29.96","316","10.8","30","0.00","0.00"
"06:29:57","36.9","22.7","56","29.97","336","13.4","29.9","0.00","0.00"
"06:34:57","36.6","23","57.6","29.97","337","10","21.6","0.00","0.00"
"06:39:57","36.1","24","61.3","29.97","336","10.2","21.9","0.00","0.00"
"06:44:56","35.2","24","63.5","29.99","334","9.5","20.7","0.00","0.00"
"06:49:59","34.5","23.6","64","29.99","338","8.9","21.9","0.00","0.00"
"06:54:59","34.2","23.1","63.6","29.99","329","7.3","21.9","0.00","0.00"
"06:59:58","33.9","22.1","61.7","30.01","328","9.2","19.6","0.00","0.00"
"07:04:58","33.7","21.7","60.8","30.01","324","8.1","19.6","0.00","0.00"
"07:09:57","33.6","21.6","61.3","30.01","338","6.4","17.3","0.00","0.00"
"07:14:56","33.3","22.1","63.4","30.03","345","5.4","13.2","0.00","0.00"
"07:19:59","32.7","21.9","64","30.03","352","5.4","15.6","0.00","0.00"
"07:24:59","32.2","21.4","64","30.03","337","5.5","18","0.00","0.00"
"07:29:59","31.5","20.6","63.8","30.05","333","7.9","18.4","0.00","0.00"
"07:34:59","30.9","19.8","63","30.05","344","9","18.4","0.00","0.00"
"07:39:58","30.4","19.4","63.2","30.05","351","7.1","15","0.00","0.00"
"07:44:58","30.1","19.3","63.6","30.06","332","8.6","23","0.00","0.00"
"07:49:58","30","19.1","63.5","30.06","351","9.2","21.9","0.00","0.00"
"07:54:58","29.9","19.1","63.7","30.06","356","7.7","19.6","0.00","0.00"
"07:59:59","29.9","19","63.6","30.06","348","9.1","21.9","0.00","0.00"
"08:04:59","29.8","18.8","63.3","30.06","352","7.7","28.8","0.00","0.00"
"08:09:58","29.8","19.1","64","30.06","320","8.5","19.6","0.00","0.00"
"08:14:57","29.9","19.1","63.9","30.08","347","6.6","16.8","0.00","0.00"
"08:19:59","30.1","18.9","62.6","30.08","337","9.9","23","0.00","0.00"
"08:24:58","30.4","18.5","60.8","30.08","344","9.9","23","0.00","0.00"
"08:29:57","30.5","18.1","59.5","30.09","339","10.7","25.3","0.00","0.00"
"08:34:56","30.5","17.3","57.6","30.09","330","12.8","26.5","0.00","0.00"
"08:39:59","30.6","16.8","56.2","30.09","322","9.5","19.6","0.00","0.00"
"08:44:58","30.9","16.6","54.9","30.10","326","10.9","28.8","0.00","0.00"
"08:49:57","30.7","15.9","53.7","30.10","339","10.8","34.8","0.00","0.00"
"08:54:57","29.9","14.7","52.7","30.10","358","14.1","34.5","0.00","0.00"
"08:59:56","29.4","14.8","54","30.12","334","12.1","31.2","0.00","0.00"
"09:04:57","29.4","14.8","54","30.12","335","8.6","19.6","0.00","0.00"
"09:09:59","29.3","14.5","53.5","30.12","329","9.7","28.8","0.00","0.00"
"09:14:59","29.1","14.3","53.5","30.13","331","9.4","20.7","0.00","0.00"
"09:19:58","29","13.8","52.7","30.13","341","12.4","28.8","0.00","0.00"
"09:24:58","28.8","13.6","52.4","30.13","338","11.5","26.5","0.00","0.00"
"09:29:57","28.9","13.4","51.8","30.13","333","12.3","34.8","0.00","0.00"
"09:34:56","28.8","12.9","51","30.13","332","14","34.5","0.00","0.00"
"09:39:59","29","13.1","51.1","30.13","326","10.5","24.2","0.00","0.00"
"09:44:58","29.6","13.6","50.8","30.14","326","8.7","17.3","0.00","0.00"
"09:49:57","29.3","13.1","50.3","30.14","342","9.6","25.3","0.00","0.00"
"09:54:57","28.3","11.7","49.2","30.14","341","11.5","26.5","0.00","0.00"
"09:59:56","28.3","11.1","48.1","30.15","335","15.2","28.8","0.00","0.00"
"10:04:56","28.5","10.4","46.3","30.15","312","13.8","33.6","0.00","0.00"
"10:09:58","28.7","10.5","45.9","30.15","327","13.8","32.4","0.00","0.00"
"10:14:57","28.2","9.8","45.4","30.17","325","13.4","39.6","0.00","0.00"
"10:19:57","28.5","9.3","43.9","30.17","338","12","28.8","0.00","0.00"
"10:24:56","28.5","8.9","43.1","30.17","316","13.5","28.8","0.00","0.00"
"10:29:59","28.8","9.2","43.3","30.18","341","12.6","25.3","0.00","0.00"
"10:34:58","28.9","9.1","42.8","30.18","346","12.3","26.5","0.00","0.00"
"10:39:57","28.4","8.6","42.8","30.18","340","14.4","30","0.00","0.00"
"10:44:59","28","8","42.3","30.19","329","13.8","29.9","0.00","0.00"
"10:49:58","28","7.6","41.5","30.19","341","13.6","28.8","0.00","0.00"
"10:54:58","28.2","7.2","40.6","30.19","332","14.9","32.4","0.00","0.00"
"10:59:56","28.2","6.9","40","30.20","337","13.4","27.6","0.00","0.00"
"11:04:56","28.3","7","39.9","30.20","350","14.4","31.2","0.00","0.00"
"11:09:59","28.3","7.5","40.8","30.20","345","12","31.1","0.00","0.00"
"11:14:58","28.5","7.2","40","30.20","341","13.2","32.4","0.00","0.00"
"11:19:58","28.1","6.6","39.7","30.20","340","14.2","39.6","0.00","0.00"
"11:24:57","28.2","6.9","40","30.20","341","14.4","29.9","0.00","0.00"
"11:29:57","28.4","6.5","38.8","30.21","338","13.4","24.2","0.00","0.00"
"11:34:56","28.9","6.5","38.1","30.21","325","10.4","24","0.00","0.00"
"11:39:56","28.4","5.5","37.1","30.21","332","13.2","24.2","0.00","0.00"
"11:44:59","28.7","6.4","38.3","30.21","310","8.5","20.7","0.00","0.00"
"11:49:58","29.1","6.5","37.8","30.21","331","10.2","30","0.00","0.00"
"11:54:58","29","6.3","37.6","30.21","327","11.6","29.9","0.00","0.00"
"11:59:57","28.8","5.7","37","30.21","319","12.6","31.2","0.00","0.00"
"12:04:57","28.4","4.9","36.2","30.21","297","11.5","23","0.00","0.00"
"12:09:56","28.2","5.2","37.1","30.21","326","12.8","25.3","0.00","0.00"
"12:14:56","28","4.3","35.8","30.22","291","11.1","26.5","0.00","0.00"
"12:19:56","28.2","4.9","36.4","30.22","282","9.3","19.6","0.00","0.00"
"12:24:56","28.5","4.6","35.5","30.22","281","9.2","19.6","0.00","0.00"
"12:29:56","29.6","5.7","35.7","30.22","312","11","28.8","0.00","0.00"
"12:34:57","28.5","4.8","35.8","30.22","303","11","25.3","0.00","0.00"
"12:39:57","28.5","4.2","34.9","30.22","303","10.7","25.3","0.00","0.00"
"12:44:58","28.6","4.6","35.4","30.22","308","10.8","28.8","0.00","0.00"
"12:49:58","28.5","4.6","35.5","30.22","323","11","27.6","0.00","0.00"
"12:54:59","28.9","4.9","35.5","30.22","315","10.9","27.6","0.00","0.00"
"12:59:59","28.6","4.7","35.5","30.22","344","11.7","31.2","0.00","0.00"
"13:04:55","28.8","5.2","36.1","30.22","318","11","31.1","0.00","0.00"
"13:09:58","29.9","6.6","36.7","30.22","317","10.7","21.6","0.00","0.00"
"13:14:59","28.9","5.1","35.6","30.22","272","9.9","21.9","0.00","0.00"
"13:19:56","29.5","6.8","37.8","30.22","311","7.8","20.7","0.00","0.00"
"13:24:57","29.2","5.8","36.6","30.22","319","10.1","26.5","0.00","0.00"
"13:29:58","30.6","7.3","36.9","30.22","310","6.3","15.6","0.00","0.00"
"13:34:59","30.1","4.8","33.6","30.21","340","12.8","28.8","0.00","0.00"
"13:39:59","29","4","33.9","30.21","340","13.3","32.4","0.00","0.00"
"13:44:56","29.5","5.6","35.8","30.22","305","8.3","21.9","0.00","0.00"
"13:49:57","29.8","5.2","34.7","30.22","313","9.8","26.4","0.00","0.00"
"13:54:58","29.1","5.1","35.4","30.22","321","10.9","26.5","0.00","0.00"
"13:59:58","28.9","5.1","35.7","30.23","320","12.5","31.2","0.00","0.00"
"14:04:58","28.9","5.4","36.4","30.23","340","13.9","30","0.00","0.00"
"14:09:57","28.7","5.1","36","30.23","292","10.6","25.3","0.00","0.00"
"14:14:57","29","5.7","36.6","30.23","314","11","26.5","0.00","0.00"
"14:19:58","29.5","5.5","35.5","30.23","325","10","21.9","0.00","0.00"
"14:24:59","29.2","5.5","35.9","30.23","320","10.3","24.2","0.00","0.00"
"14:29:56","29.2","5.6","36.1","30.23","335","9.4","25.2","0.00","0.00"
"14:34:56","29.3","5.5","35.8","30.23","339","8.9","25.3","0.00","0.00"
"14:39:57","29.4","5.4","35.5","30.23","314","11.5","25.3","0.00","0.00"
"14:44:57","29","5.2","35.8","30.24","303","7.2","20.4","0.00","0.00"
"14:49:59","29.4","5.7","36","30.24","325","7.9","27.6","0.00","0.00"
"14:54:56","30.2","6.5","36.1","30.24","311","6.5","23","0.00","0.00"
"14:59:56","29.6","5.2","34.9","30.25","310","9.7","24.2","0.00","0.00"
"15:04:56","29","4.7","35.1","30.25","314","11.4","26.5","0.00","0.00"
"15:09:59","28.7","4.1","34.5","30.25","309","11.3","26.5","0.00","0.00"
"15:14:58","28.7","3.8","34","30.25","313","12.6","28.8","0.00","0.00"
"15:19:58","28.6","4.1","34.7","30.25","315","11.9","28.8","0.00","0.00"
"15:24:59","28.3","3.4","33.8","30.25","336","13.2","28.8","0.00","0.00"
"15:29:59","28.1","3.5","34.3","30.26","336","12.8","28.8","0.00","0.00"
"15:34:59","28.5","4.2","34.9","30.26","302","8.2","24.2","0.00","0.00"
"15:39:56","29","5.1","35.6","30.26","339","8.8","25.3","0.00","0.00"
"15:44:56","28.6","4.8","35.7","30.28","325","8.6","24.2","0.00","0.00"
"15:49:57","28.4","5.1","36.5","30.28","331","10.6","20.7","0.00","0.00"
"15:54:57","28.5","5.4","36.9","30.28","332","8.9","31.2","0.00","0.00"
"15:59:57","28","4.7","36.5","30.29","327","11.8","31.1","0.00","0.00"
"16:04:58","27.9","5.1","37.3","30.29","330","9.6","31.2","0.00","0.00"
"16:09:57","27.5","4.5","36.7","30.29","335","13.5","26.5","0.00","0.00"
"16:14:57","27.4","4.2","36.4","30.30","335","9.5","19.6","0.00","0.00"
"16:19:58","27.1","3.3","35.5","30.30","328","12.2","30","0.00","0.00"
"16:24:59","26.7","3","35.5","30.30","351","12.9","32.4","0.00","0.00"
"16:29:56","26.6","3.4","36.3","30.32","322","9.7","32.2","0.00","0.00"
"16:34:57","26.7","3.5","36.3","30.32","292","8.3","24.2","0.00","0.00"
"16:39:58","26.9","3.5","36.1","30.32","320","5.4","25.2","0.00","0.00"
"16:44:58","26.7","3","35.5","30.32","328","11","25.3","0.00","0.00"
"16:49:58","26.2","2.4","35.4","30.32","325","10.6","25.2","0.00","0.00"
"16:54:59","26.1","2.7","36","30.32","333","12.2","26.5","0.00","0.00"
"16:59:55","25.9","2.8","36.5","30.34","332","9.8","21.6","0.00","0.00"
"17:04:56","25.6","2.7","36.7","30.34","329","8.3","28.8","0.00","0.00"
"17:09:59","25.2","2.1","36.4","30.34","345","9.8","24.2","0.00","0.00"
"17:14:56","24.9","2.3","37.2","30.35","322","6.4","31.2","0.00","0.00"
"17:19:57","24.6","2","37","30.35","321","8.9","25.3","0.00","0.00"
"17:24:58","24.3","1.7","37","30.35","330","11","21.6","0.00","0.00"
"17:29:59","24","1.8","37.7","30.36","320","7.5","21.9","0.00","0.00"
"17:34:56","23.8","1.7","37.7","30.36","331","8.6","22.8","0.00","0.00"
"17:39:58","23.7","1.8","38","30.36","314","8.2","23","0.00","0.00"
"17:44:56","23.5","2","38.8","30.37","329","7.6","21.6","0.00","0.00"
"17:49:57","23.4","1.9","38.8","30.37","320","9","19.6","0.00","0.00"
"17:54:58","23.2","2","39.1","30.37","331","7.5","19.6","0.00","0.00"
"17:59:59","23.1","1.7","38.9","30.38","321","9.8","27.6","0.00","0.00"
"18:04:56","23","1.5","38.8","30.38","321","7","17.3","0.00","0.00"
"18:09:59","22.7","1.5","39.1","30.38","316","4.9","17.3","0.00","0.00"
"18:14:57","22.5","1.3","39","30.40","335","8","24","0.00","0.00"
"18:19:59","22.6","1.3","39","30.40","338","8.7","20.7","0.00","0.00"
"18:24:56","22.5","1.3","39.2","30.40","335","6.8","21.6","0.00","0.00"
"18:29:57","22.4","1.4","39.5","30.41","336","10.4","21.9","0.00","0.00"
"18:34:58","22.4","1.2","39.2","30.41","327","7.6","20.7","0.00","0.00"
"18:39:56","22.1","1.3","39.7","30.41","332","7.2","20.7","0.00","0.00"
"18:44:57","22","1.1","39.5","30.42","329","11.7","27.6","0.00","0.00"
"18:49:59","22","0.9","39.3","30.42","332","9.8","19.6","0.00","0.00"
"18:54:57","21.9","1","39.6","30.42","336","9.8","23","0.00","0.00"
"18:59:57","21.8","1.1","40","30.43","315","7.4","15","0.00","0.00"
"19:04:58","21.6","1.1","40.2","30.43","330","7","23","0.00","0.00"
"19:09:57","21.6","1","40","30.43","323","10.1","21.9","0.00","0.00"
"19:14:58","21.5","0.9","40","30.44","316","9.9","28.8","0.00","0.00"
"19:19:59","21.5","0.9","40.2","30.44","341","9.8","22.8","0.00","0.00"
"19:24:56","21.4","0.9","40.2","30.44","326","9.4","23","0.00","0.00"
"19:29:57","21.3","0.7","40","30.45","339","12.3","28.8","0.00","0.00"
"19:34:58","21.3","0.6","39.9","30.45","327","8.5","25.3","0.00","0.00"
"19:39:56","21.1","0","39","30.45","317","11.8","25.2","0.00","0.00"
"19:44:57","21","0","39.2","30.45","320","9.6","25.3","0.00","0.00"
"19:49:58","20.9","0","39.5","30.45","312","7.2","18.4","0.00","0.00"
"19:54:59","20.7","0","39.8","30.45","307","5.4","19.6","0.00","0.00"
"19:59:56","20.6","0.1","40","30.46","308","6.6","19.6","0.00","0.00"
"20:04:57","20.4","-0.2","39.8","30.46","311","7.4","17.3","0.00","0.00"
"20:09:56","20.3","-0.3","39.8","30.46","319","7.9","18.4","0.00","0.00"
"20:14:57","20.2","-0.4","39.7","30.47","322","9.7","23","0.00","0.00"
"20:19:58","20.2","-0.4","39.8","30.47","333","8.2","19.6","0.00","0.00"
"20:24:56","20.2","-0.3","40","30.47","314","9.2","21.9","0.00","0.00"
"20:29:57","20.1","-0.3","40.3","30.48","346","9.5","20.7","0.00","0.00"
"20:34:58","20","-0.5","40","30.48","334","11.2","24.2","0.00","0.00"
"20:39:59","19.9","-0.3","40.6","30.48","343","7.8","24.2","0.00","0.00"
"20:44:57","19.7","-0.2","41","30.49","330","7.6","20.7","0.00","0.00"
"20:49:58","19.7","-0.2","41","30.49","334","8.1","20.7","0.00","0.00"
"20:54:56","19.5","-0.2","41.4","30.49","341","4.6","15","0.00","0.00"
"20:59:58","19.4","0.1","42.3","30.50","331","2.4","6","0.00","0.00"
"21:04:58","19","0.2","43.2","30.50","332","5.4","15","0.00","0.00"
"21:09:57","18.9","0.2","43.4","30.50","299","4.3","20.7","0.00","0.00"
"21:14:58","18.9","-0.6","41.7","30.50","322","9.6","19.6","0.00","0.00"
"21:19:58","18.9","-0.7","41.5","30.50","335","5.6","15","0.00","0.00"
"21:24:56","18.8","-0.5","42","30.50","313","6.1","16.1","0.00","0.00"
"21:29:57","18.7","-0.8","41.7","30.51","336","7.5","18","0.00","0.00"
"21:34:58","18.6","-0.7","42","30.51","322","5.5","16.8","0.00","0.00"
"21:39:59","18.5","-0.6","42.5","30.51","307","3.4","12","0.00","0.00"
"21:44:56","18.3","-0.5","43","30.52","326","4.6","11.5","0.00","0.00"
"21:49:58","18.2","-0.9","42.4","30.52","336","9.7","24.2","0.00","0.00"
"21:54:59","18.3","-0.6","42.9","30.52","327","6","12","0.00","0.00"
"21:59:56","18.1","-0.7","43","30.52","338","7","16.1","0.00","0.00"
"22:04:57","18","-0.4","43.7","30.52","314","5.1","15","0.00","0.00"
"22:09:56","17.9","-0.8","43.1","30.52","321","6.9","16.1","0.00","0.00"
"22:14:57","17.9","-0.4","44","30.53","332","6.7","15","0.00","0.00"
"22:19:58","17.7","-0.4","44.3","30.53","334","6.4","19.6","0.00","0.00"
"22:24:56","17.7","-0.8","43.6","30.53","310","5.4","16.1","0.00","0.00"
"22:29:57","17.6","-0.5","44.2","30.53","328","6.2","16.1","0.00","0.00"
"22:34:58","17.5","-0.4","44.6","30.53","336","6.1","16.1","0.00","0.00"
"22:39:59","17.5","-0.5","44.5","30.53","334","5.3","12","0.00","0.00"
"22:44:56","17.4","-0.4","45","30.54","329","5.6","13.2","0.00","0.00"
"22:49:57","17.3","-0.4","45","30.54","330","6.9","15","0.00","0.00"
"22:54:59","17.3","-0.4","45","30.54","334","9.1","19.6","0.00","0.00"
"22:59:56","17.4","-0.2","45.4","30.55","320","5.5","16.1","0.00","0.00"
"23:04:57","17.2","-0.1","45.8","30.55","323","5.8","13.2","0.00","0.00"
"23:09:59","17.1","0","46.3","30.55","327","5.1","19.6","0.00","0.00"
"23:14:57","16.9","0.2","47.2","30.55","330","3.4","13.2","0.00","0.00"
"23:19:58","16.8","0.1","47.2","30.54","331","4.9","12.7","0.00","0.00"
"23:24:59","16.7","0.1","47.5","30.54","328","4.9","13.2","0.00","0.00"
"23:29:56","16.7","0","47.2","30.55","333","8.6","18.4","0.00","0.00"
"23:34:57","16.7","-0.1","46.8","30.55","340","5.4","15.6","0.00","0.00"
"23:39:59","16.7","-0.4","46.1","30.55","330","7.8","16.8","0.00","0.00"
"23:44:59","16.7","-0.5","46","30.56","332","6.8","17.3","0.00","0.00"
"23:49:56","16.7","-0.1","46.8","30.56","348","5.1","15","0.00","0.00"
"23:54:54","16.6","-0.2","47.1","30.56","334","5.7","13.2","0.00","0.00"
